| time (UTC) | temp C | wind direction | speed KPH | gust KPH | rain 1hr cm | rain 24hr cm | rain mn cm | humidity % | barometer mb |
| 20260505233048 | 16 | 287 | 3.2 | 12.9 | 0.00 | 0.00 | 0.00 | 70 | 1015.5 |
| 20260505231550 | 16 | 267 | 3.2 | 8.0 | 0.00 | 0.00 | 0.00 | 69 | 1015.6 |
| 20260505230051 | 16 | 298 | 4.8 | 9.7 | 0.00 | 0.00 | 0.00 | 70 | 1015.6 |
| 20260505224549 | 16 | 300 | 1.6 | 6.4 | 0.00 | 0.00 | 0.00 | 71 | 1015.5 |
| 20260505223058 | 15 | 344 | 3.2 | 6.4 | 0.00 | 0.00 | 0.00 | 71 | 1015.6 |
| 20260505221557 | 15 | 36 | 4.8 | 8.0 | 0.00 | 0.00 | 0.00 | 71 | 1015.7 |
| 20260505220119 | 15 | 30 | 1.6 | 4.8 | 0.00 | 0.00 | 0.00 | 71 | 1015.8 |
| 20260505214604 | 15 | 281 | 0.0 | 4.8 | 0.00 | 0.00 | 0.00 | 71 | 1015.8 |
| 20260505213051 | 15 | 107 | 1.6 | 4.8 | 0.00 | 0.00 | 0.00 | 72 | 1016.0 |
| 20260505211611 | 15 | 0 | 1.6 | 8.0 | 0.00 | 0.00 | 0.00 | 72 | 1016.0 |
| 20260505210043 | 15 | 182 | 0.0 | 4.8 | 0.00 | 0.00 | 0.00 | 72 | 1016.0 |
| 20260505204549 | 15 | 0 | 0.0 | 4.8 | 0.00 | 0.00 | 0.00 | 72 | 1015.9 |
| 20260505203045 | 15 | 296 | 0.0 | 3.2 | 0.00 | 0.00 | 0.00 | 72 | 1015.9 |
| 20260505201602 | 15 | 316 | 3.2 | 8.0 | 0.00 | 0.00 | 0.00 | 72 | 1015.9 |
| 20260505200058 | 15 | 217 | 1.6 | 8.0 | 0.00 | 0.00 | 0.00 | 71 | 1016.2 |
| 20260505194600 | 15 | 204 | 1.6 | 6.4 | 0.00 | 0.00 | 0.00 | 71 | 1016.2 |
| 20260505193049 | 15 | 133 | 0.0 | 8.0 | 0.00 | 0.00 | 0.00 | 72 | 1016.4 |
| 20260505191553 | 15 | 225 | 1.6 | 4.8 | 0.00 | 0.00 | 0.00 | 71 | 1016.2 |
| 20260505190051 | 14 | 198 | 3.2 | 6.4 | 0.00 | 0.00 | 0.00 | 72 | 1016.2 |
| 20260505184545 | 14 | 35 | 3.2 | 8.0 | 0.00 | 0.00 | 0.00 | 73 | 1016.2 |
| 20260505183048 | 13 | 9 | 1.6 | 11.3 | 0.00 | 0.00 | 0.00 | 72 | 1016.2 |
| 20260505181541 | 13 | 14 | 1.6 | 9.7 | 0.00 | 0.00 | 0.00 | 72 | 1016.1 |
| 20260505180050 | 13 | 0 | 1.6 | 11.3 | 0.00 | 0.00 | 0.00 | 71 | 1016.1 |
| 20260505174548 | 13 | 313 | 1.6 | 6.4 | 0.00 | 0.00 | 0.00 | 71 | 1016.0 |
| 20260505173050 | 13 | 322 | 1.6 | 6.4 | 0.00 | 0.00 | 0.00 | 71 | 1015.7 |
| 20260505171551 | 13 | 0 | 1.6 | 6.4 | 0.00 | 0.00 | 0.00 | 71 | 1015.6 |
| 20260505170049 | 13 | 34 | 0.0 | 4.8 | 0.00 | 0.00 | 0.00 | 72 | 1015.7 |
| 20260505164549 | 13 | 0 | 0.0 | 3.2 | 0.00 | 0.00 | 0.00 | 72 | 1015.6 |
| 20260505163044 | 13 | 0 | 0.0 | 4.8 | 0.00 | 0.00 | 0.00 | 73 | 1015.5 |
| 20260505161554 | 13 | 0 | 0.0 | 4.8 | 0.00 | 0.00 | 0.00 | 74 | 1015.5 |
| 20260505153052 | 12 | 0 | 0.0 | 1.6 | 0.00 | 0.00 | 0.00 | 75 | 1015.3 |
| 20260505151549 | 12 | 0 | 0.0 | 3.2 | 0.00 | 0.00 | 0.00 | 76 | 1015.2 |
| 20260505124558 | 11 | 0 | 0.0 | 0.0 | 0.00 | 0.00 | 0.00 | 78 | 1014.6 |
| 20260505123046 | 11 | 0 | 0.0 | 0.0 | 0.00 | 0.00 | 0.00 | 78 | 1014.6 |
| 20260505121544 | 11 | 0 | 0.0 | 0.0 | 0.00 | 0.00 | 0.00 | 78 | 1014.7 |
| 20260505120049 | 11 | 0 | 0.0 | 3.2 | 0.00 | 0.00 | 0.00 | 78 | 1014.9 |
| 20260505114549 | 11 | 304 | 1.6 | 4.8 | 0.00 | 0.00 | 0.00 | 77 | 1014.9 |
| 20260505113048 | 11 | 0 | 0.0 | 4.8 | 0.00 | 0.00 | 0.00 | 77 | 1015.0 |
| 20260505111547 | 11 | 338 | 1.6 | 4.8 | 0.00 | 0.00 | 0.00 | 76 | 1014.9 |
| 20260505101546 | 12 | 313 | 0.0 | 8.0 | 0.00 | 0.00 | 0.00 | 74 | 1014.8 |
| 20260505100044 | 12 | 307 | 1.6 | 6.4 | 0.00 | 0.00 | 0.00 | 74 | 1015.0 |
| 20260505094548 | 12 | 269 | 1.6 | 6.4 | 0.00 | 0.00 | 0.00 | 74 | 1015.0 |
| 20260505093044 | 12 | 312 | 3.2 | 11.3 | 0.00 | 0.00 | 0.00 | 73 | 1015.2 |
| 20260505091542 | 12 | 303 | 3.2 | 11.3 | 0.00 | 0.00 | 0.00 | 71 | 1015.0 |
| 20260505090050 | 12 | 275 | 8.0 | 19.3 | 0.00 | 0.00 | 0.00 | 70 | 1015.3 |
| 20260505084549 | 12 | 306 | 8.0 | 16.1 | 0.00 | 0.00 | 0.00 | 70 | 1015.4 |
| 20260505083045 | 12 | 275 | 8.0 | 17.7 | 0.00 | 0.00 | 0.00 | 69 | 1015.7 |
| 20260505081544 | 12 | 303 | 12.9 | 22.5 | 0.00 | 0.00 | 0.00 | 70 | 1015.6 |
| 20260505080055 | 12 | 311 | 8.0 | 16.1 | 0.00 | 0.00 | 0.00 | 73 | 1015.7 |
| 20260505074549 | 12 | 301 | 4.8 | 12.9 | 0.00 | 0.00 | 0.00 | 75 | 1015.6 |
| 20260505073052 | 12 | 308 | 4.8 | 12.9 | 0.00 | 0.00 | 0.00 | 75 | 1015.6 |
| 20260505071548 | 12 | 313 | 6.4 | 14.5 | 0.00 | 0.00 | 0.00 | 76 | 1015.5 |
| 20260505070055 | 12 | 279 | 4.8 | 8.0 | 0.00 | 0.00 | 0.00 | 79 | 1015.2 |
| 20260505064550 | 12 | 309 | 3.2 | 8.0 | 0.00 | 0.00 | 0.00 | 79 | 1015.2 |
| 20260505063107 | 12 | 281 | 1.6 | 4.8 | 0.00 | 0.00 | 0.00 | 78 | 1015.2 |
| 20260505061543 | 12 | 300 | 3.2 | 9.7 | 0.00 | 0.00 | 0.00 | 77 | 1015.0 |
| 20260505060048 | 13 | 290 | 3.2 | 8.0 | 0.00 | 0.00 | 0.00 | 77 | 1014.9 |
| 20260505054554 | 13 | 0 | 1.6 | 8.0 | 0.00 | 0.00 | 0.00 | 76 | 1015.1 |
| 20260505053058 | 13 | 305 | 4.8 | 17.7 | 0.00 | 0.00 | 0.00 | 76 | 1015.3 |
| 20260505051543 | 13 | 280 | 4.8 | 16.1 | 0.00 | 0.00 | 0.00 | 75 | 1015.6 |
| 20260505041553 | 13 | 321 | 6.4 | 17.7 | 0.00 | 0.00 | 0.00 | 72 | 1015.1 |
| 20260505040055 | 14 | 321 | 4.8 | 17.7 | 0.00 | 0.00 | 0.00 | 70 | 1014.9 |
| 20260505034545 | 14 | 290 | 6.4 | 14.5 | 0.00 | 0.00 | 0.00 | 68 | 1014.6 |
| 20260505033044 | 15 | 341 | 4.8 | 11.3 | 0.00 | 0.00 | 0.00 | 67 | 1014.2 |
| 20260505031553 | 15 | 311 | 3.2 | 12.9 | 0.00 | 0.00 | 0.00 | 65 | 1014.0 |
| 20260505030043 | 15 | 294 | 4.8 | 16.1 | 0.00 | 0.00 | 0.00 | 65 | 1014.1 |
| 20260505024556 | 15 | 360 | 4.8 | 14.5 | 0.00 | 0.00 | 0.00 | 64 | 1014.2 |
| 20260505023041 | 15 | 11 | 6.4 | 17.7 | 0.00 | 0.00 | 0.00 | 62 | 1014.0 |
| 20260505021553 | 15 | 321 | 8.0 | 17.7 | 0.00 | 0.00 | 0.00 | 62 | 1013.9 |
| 20260505020046 | 15 | 352 | 3.2 | 19.3 | 0.00 | 0.00 | 0.00 | 63 | 1013.9 |
| 20260505014601 | 16 | 352 | 6.4 | 17.7 | 0.00 | 0.00 | 0.00 | 62 | 1013.9 |
| 20260505013042 | 16 | 343 | 3.2 | 20.9 | 0.00 | 0.00 | 0.00 | 63 | 1013.9 |
| 20260505011552 | 16 | 326 | 9.7 | 16.1 | 0.00 | 0.00 | 0.00 | 64 | 1014.1 |
| 20260505010042 | 16 | 326 | 8.0 | 19.3 | 0.00 | 0.00 | 0.00 | 63 | 1014.3 |
| 20260505004544 | 16 | 330 | 6.4 | 16.1 | 0.00 | 0.00 | 0.00 | 65 | 1014.4 |
| 20260505003043 | 16 | 319 | 9.7 | 17.7 | 0.00 | 0.00 | 0.00 | 65 | 1014.4 |
| 20260505001542 | 16 | 298 | 8.0 | 17.7 | 0.00 | 0.00 | 0.00 | 65 | 1014.4 |